This demonstration page uses our WeatherBlox Daily Observations layout. Learn more.

Left ArrowRight Arrow

Hourly Observations for May 9, 2017

Temp ( °F °C ) Dew Point ( °F °C ) Humidity (%) Winds ( mph kmh ) Pressure ( in mb ) Visibility ( mi km ) Precip ( " mm )
12:54 am 00:54 Clear 66 18.9 56 13.3 70 70 N 5 7 29.92 1013 10 16.0934 0 0
1:54 am 01:54 Clear 66 18.9 56 13.3 70 70 WNW 3 6 29.92 1013 10 16.0934 0 0
2:54 am 02:54 Clear 63 17.2 55 12.8 76 76 Calm 29.91 1013 10 16.0934 0 0
3:54 am 03:54 Clear 61 16.1 55 12.8 81 81 Calm 29.91 1013 10 16.0934 0 0
4:54 am 04:54 Clear 58 14.4 54 12.2 87 87 N 6 9 29.91 1013 10 16.0934 0 0
5:54 am 05:54 Clear 58 14.4 54 12.2 87 87 N 7 11 29.93 1014 10 16.0934 0 0
6:54 am 06:54 Sunny 58 14.4 54 12.2 87 87 N 9 15 29.94 1014 10 16.0934 0 0
7:54 am 07:54 Sunny 61 16.1 53 11.7 75 75 N 10 17 29.96 1015 10 16.0934 0 0
8:54 am 08:54 Sunny 64 17.8 52 11.1 65 65 N 16 26 29.96 1015 10 16.0934 0 0
9:54 am 09:54 Sunny 67 19.4 51 10.6 57 57 NNE 16 26 29.96 1015 10 16.0934 0 0
10:54 am 10:54 Sunny 70 21.1 52 11.1 53 53 NNE 13 20 29.97 1015 10 16.0934 0 0
11:54 am 11:54 Sunny 72 22.2 53 11.7 52 52 ENE 10 17 29.96 1015 10 16.0934 0 0
12:54 pm 12:54 Sunny 74 23.3 53 11.7 48 48 ENE 12 19 29.93 1013 10 16.0934 0 0
1:54 pm 13:54 Sunny 77 25 54 12.2 45 45 NE 8 13 29.9 1013 10 16.0934 0 0
2:54 pm 14:54 Sunny 79 26.1 54 12.2 42 42 VRB 6 9 29.88 1012 10 16.0934 0 0
3:54 pm 15:54 Partly Cloudy 81 27.2 55 12.8 41 41 NW 8 13 29.87 1011 10 16.0934 0 0
4:54 pm 16:54 Mostly Cloudy 82 27.8 56 13.3 41 41 VRB 5 7 29.86 1011 10 16.0934 0 0
5:54 pm 17:54 Mostly Sunny 81 27.2 56 13.3 42 42 VRB 3 6 29.84 1011 10 16.0934 0 0
6:54 pm 18:54 Sunny 80 26.7 55 12.8 42 42 NNW 7 11 29.83 1010 10 16.0934 0 0
7:54 pm 19:54 Sunny 75 23.9 56 13.3 52 52 NNE 9 15 29.82 1010 10 16.0934 0 0
8:54 pm 20:54 Clear 69 20.6 56 13.3 63 63 NE 8 13 29.83 1010 10 16.0934 0 0
9:54 pm 21:54 Mostly Clear 68 20 55 12.8 63 63 N 10 17 29.84 1011 10 16.0934 0 0
10:54 pm 22:54 Partly Cloudy 66 18.9 46 7.8 49 49 NNE 10 17 29.86 1011 10 16.0934 0 0
11:54 pm 23:54 Partly Cloudy 64 17.8 46 7.8 52 52 N 10 17 29.87 1011 10 16.0934 0 0

Powered by AerisWeather